�������l�o���
Date,Time,MP-1(��Sv/h),MP-2(��Sv/h),MP-3(��Sv/h),MP-4(��Sv/h),MP-5(��Sv/h),MP-6(��Sv/h),MP-7(��Sv/h),MP-8(��Sv/h),����,����(m/s),���J
2021/07/21,00:00,0.628,0.939,0.598,1.135,0.821,0.376,0.647,0.604,�k�k��,3.0,��
2021/07/21,00:10,0.629,0.940,0.600,1.135,0.821,0.375,0.649,0.604,�k�k��,3.1,��
2021/07/21,00:20,0.628,0.940,0.597,1.134,0.822,0.375,0.648,0.604,�k,3.2,��
2021/07/21,00:30,0.628,0.940,0.599,1.136,0.823,0.376,0.647,0.604,�k�k��,2.5,��
2021/07/21,00:40,0.629,0.940,0.599,1.135,0.823,0.376,0.648,0.604,�k�k��,2.3,��
2021/07/21,00:50,0.628,0.942,0.599,1.135,0.822,0.376,0.649,0.604,�k,2.5,��
2021/07/21,01:00,0.628,0.940,0.599,1.138,0.822,0.377,0.649,0.605,�k�k��,2.6,��
2021/07/21,01:10,0.628,0.940,0.600,1.138,0.821,0.377,0.648,0.604,�k,2.0,��
2021/07/21,01:20,0.629,0.940,0.598,1.137,0.823,0.376,0.648,0.604,�k,2.3,��
2021/07/21,01:30,0.629,0.940,0.599,1.137,0.822,0.377,0.650,0.604,�k,2.3,��
2021/07/21,01:40,0.628,0.941,0.599,1.137,0.823,0.376,0.649,0.603,�k�k��,2.3,��
2021/07/21,01:50,0.627,0.942,0.598,1.135,0.823,0.378,0.648,0.604,�k,2.2,��
2021/07/21,02:00,0.628,0.941,0.598,1.134,0.824,0.376,0.647,0.604,�k,2.2,��
2021/07/21,02:10,0.625,0.939,0.598,1.135,0.822,0.376,0.648,0.603,�k,2.0,��
2021/07/21,02:20,0.627,0.938,0.598,1.136,0.822,0.376,0.647,0.603,�k,2.6,��
2021/07/21,02:30,0.628,0.938,0.598,1.135,0.822,0.376,0.646,0.603,�k,2.2,��
2021/07/21,02:40,0.628,0.941,0.598,1.136,0.824,0.375,0.647,0.603,�k,1.7,��
2021/07/21,02:50,0.628,0.939,0.597,1.135,0.822,0.377,0.649,0.604,�k�k��,2.0,��
2021/07/21,03:00,0.628,0.941,0.599,1.138,0.822,0.375,0.649,0.605,�k�k��,1.5,��
2021/07/21,03:10,0.629,0.943,0.599,1.135,0.822,0.376,0.648,0.605,�k�k��,1.9,��
2021/07/21,03:20,0.629,0.940,0.598,1.137,0.821,0.376,0.649,0.605,�k�k��,1.5,��
2021/07/21,03:30,0.627,0.940,0.598,1.134,0.823,0.376,0.648,0.604,�k�k��,1.4,��
2021/07/21,03:40,0.630,0.941,0.599,1.138,0.822,0.375,0.647,0.603,�k��,0.9,��
2021/07/21,03:50,0.629,0.940,0.599,1.138,0.823,0.377,0.648,0.604,���k��,0.8,��
2021/07/21,04:00,0.628,0.943,0.598,1.135,0.820,0.376,0.646,0.603,�k�k��,0.8,��
2021/07/21,04:10,0.628,0.942,0.600,1.136,0.822,0.376,0.650,0.604,���쐼,1.2,��
2021/07/21,04:20,0.631,0.941,0.599,1.137,0.821,0.377,0.649,0.605,��,0.6,��
2021/07/21,04:30,0.628,0.942,0.599,1.138,0.823,0.375,0.649,0.605,��쐼,0.8,��
2021/07/21,04:40,0.630,0.942,0.599,1.137,0.823,0.377,0.649,0.605,��쐼,1.5,��
2021/07/21,04:50,0.628,0.941,0.598,1.134,0.822,0.375,0.650,0.602,��쐼,1.7,��
2021/07/21,05:00,0.630,0.941,0.599,1.136,0.821,0.375,0.648,0.604,��,1.7,��
2021/07/21,05:10,0.629,0.943,0.599,1.139,0.819,0.375,0.648,0.604,��쓌,1.2,��
2021/07/21,05:20,0.629,0.940,0.598,1.136,0.822,0.375,0.649,0.603,��쓌,1.5,��
2021/07/21,05:30,0.628,0.942,0.597,1.134,0.820,0.377,0.647,0.602,��쓌,0.9,��
2021/07/21,05:40,0.628,0.939,0.597,1.135,0.822,0.373,0.647,0.603,��쓌,1.7,��
2021/07/21,05:50,0.626,0.940,0.597,1.135,0.818,0.373,0.647,0.604,��쓌,0.9,��
2021/07/21,06:00,0.627,0.940,0.595,1.135,0.822,0.374,0.647,0.603,��쓌,1.2,��
2021/07/21,06:10,0.626,0.939,0.596,1.136,0.820,0.373,0.646,0.604,��,0.6,��
2021/07/21,06:20,0.626,0.941,0.595,1.134,0.820,0.373,0.648,0.604,-,CALM,��
2021/07/21,06:30,0.627,0.939,0.596,1.135,0.819,0.374,0.648,0.604,���쓌,1.2,��
2021/07/21,06:40,0.626,0.940,0.596,1.133,0.819,0.374,0.647,0.605,��쓌,0.6,��
2021/07/21,06:50,0.625,0.941,0.596,1.132,0.818,0.372,0.648,0.604,���k��,0.6,��
2021/07/21,07:00,0.625,0.941,0.596,1.133,0.820,0.373,0.648,0.603,���쓌,0.6,��
2021/07/21,07:10,0.627,0.940,0.595,1.132,0.819,0.372,0.648,0.603,��,0.6,��
2021/07/21,07:20,0.627,0.939,0.595,1.136,0.820,0.372,0.647,0.604,�k��,0.8,��
2021/07/21,07:30,0.625,0.943,0.596,1.135,0.817,0.374,0.648,0.604,��,0.9,��
2021/07/21,07:40,0.625,0.940,0.596,1.135,0.821,0.373,0.648,0.603,���k��,1.1,��
2021/07/21,07:50,0.626,0.942,0.597,1.133,0.819,0.372,0.647,0.604,��,1.4,��
2021/07/21,08:00,0.627,0.941,0.597,1.134,0.819,0.373,0.647,0.605,�k��,0.9,��
2021/07/21,08:10,0.626,0.940,0.597,1.136,0.822,0.374,0.647,0.604,���쓌,1.7,��
2021/07/21,08:20,0.628,0.939,0.597,1.135,0.821,0.374,0.649,0.604,���k��,2.0,��
2021/07/21,08:30,0.626,0.939,0.596,1.134,0.820,0.376,0.647,0.604,���k��,2.5,��
2021/07/21,08:40,0.626,0.937,0.596,1.134,0.819,0.375,0.645,0.603,��,2.3,��
2021/07/21,08:50,0.626,0.935,0.594,1.133,0.820,0.375,0.648,0.602,��,2.3,��
2021/07/21,09:00,0.628,0.939,0.596,1.136,0.820,0.371,0.648,0.602,��,2.5,��
2021/07/21,09:10,0.627,0.936,0.594,1.134,0.820,0.373,0.647,0.601,���k��,2.3,��
2021/07/21,09:20,0.627,0.934,0.596,1.133,0.821,0.373,0.649,0.601,���k��,2.2,��
2021/07/21,09:30,0.627,0.935,0.596,1.135,0.818,0.373,0.648,0.600,���k��,2.0,��
2021/07/21,09:40,0.627,0.938,0.597,1.135,0.820,0.373,0.647,0.602,���k��,2.3,��
2021/07/21,09:50,0.628,0.936,0.595,1.135,0.820,0.374,0.649,0.602,��,2.0,��
2021/07/21,10:00,0.627,0.934,0.594,1.135,0.814,0.374,0.648,0.603,��,1.7,��
2021/07/21,10:10,0.626,0.936,0.596,1.135,0.815,0.374,0.648,0.602,��,2.3,��
2021/07/21,10:20,0.626,0.935,0.596,1.130,0.820,0.374,0.648,0.601,��,1.9,��
2021/07/21,10:30,0.627,0.936,0.590,1.135,0.820,0.375,0.647,0.602,���쓌,2.3,��
2021/07/21,10:40,0.628,0.938,0.582,1.136,0.822,0.374,0.646,0.602,���쓌,2.0,��
2021/07/21,10:50,0.627,0.939,0.596,1.134,0.821,0.375,0.647,0.602,���쓌,1.7,��
2021/07/21,11:00,0.627,0.939,0.596,1.135,0.820,0.374,0.647,0.602,��,1.7,��
2021/07/21,11:10,0.628,0.937,0.595,1.136,0.820,0.375,0.646,0.603,���쓌,1.9,��
2021/07/21,11:20,0.628,0.941,0.595,1.137,0.822,0.374,0.648,0.602,���쓌,2.6,��
2021/07/21,11:30,0.627,0.939,0.596,1.134,0.820,0.373,0.648,0.601,��,2.2,��
2021/07/21,11:40,0.629,0.939,0.596,1.134,0.822,0.375,0.646,0.602,���쓌,2.9,��
2021/07/21,11:50,0.628,0.936,0.595,1.133,0.822,0.374,0.646,0.601,���쓌,3.2,��
2021/07/21,12:00,0.628,0.939,0.596,1.134,0.821,0.373,0.647,0.603,���쓌,2.9,��
2021/07/21,12:10,0.626,0.938,0.597,1.133,0.822,0.375,0.649,0.602,���쓌,2.8,��
2021/07/21,12:20,0.629,0.939,0.595,1.135,0.823,0.374,0.647,0.601,���쓌,3.3,��
2021/07/21,12:30,0.627,0.940,0.598,1.136,0.821,0.373,0.648,0.601,���쓌,3.1,��
2021/07/21,12:40,0.628,0.939,0.596,1.135,0.821,0.375,0.647,0.602,���쓌,3.9,��
2021/07/21,12:50,0.629,0.940,0.596,1.136,0.820,0.374,0.648,0.602,���쓌,2.6,��
2021/07/21,13:00,0.628,0.939,0.598,1.135,0.823,0.375,0.647,0.602,�쓌,2.8,��
2021/07/21,13:10,0.628,0.938,0.596,1.137,0.824,0.374,0.648,0.604,��쓌,3.0,��
2021/07/21,13:20,0.630,0.940,0.597,1.136,0.824,0.375,0.648,0.602,��쓌,2.6,��
2021/07/21,13:30,0.629,0.938,0.596,1.137,0.824,0.374,0.648,0.601,��쓌,2.0,��
2021/07/21,13:40,0.629,0.938,0.598,1.134,0.821,0.376,0.648,0.601,���쓌,2.5,��
2021/07/21,13:50,0.629,0.939,0.596,1.136,0.825,0.374,0.648,0.602,�쓌,2.6,��
2021/07/21,14:00,0.628,0.940,0.598,1.136,0.824,0.375,0.647,0.600,�쓌,2.3,��
2021/07/21,14:10,0.629,0.939,0.597,1.139,0.824,0.373,0.648,0.602,�쓌,2.8,��
2021/07/21,14:20,0.629,0.941,0.598,1.134,0.825,0.375,0.648,0.603,�쓌,2.8,��
2021/07/21,14:30,0.628,0.939,0.596,1.135,0.825,0.375,0.646,0.602,���쓌,2.9,��
2021/07/21,14:40,0.627,0.939,0.597,1.137,0.823,0.374,0.649,0.602,���쓌,3.3,��
2021/07/21,14:50,0.627,0.940,0.598,1.137,0.825,0.374,0.649,0.602,�쓌,3.7,��
2021/07/21,15:00,0.629,0.938,0.597,1.137,0.825,0.375,0.647,0.604,�쓌,2.6,��
2021/07/21,15:10,0.627,0.939,0.599,1.137,0.825,0.374,0.650,0.602,�쓌,3.0,��
2021/07/21,15:20,0.629,0.941,0.597,1.137,0.826,0.375,0.649,0.603,���쓌,3.1,��
2021/07/21,15:30,0.630,0.942,0.599,1.138,0.824,0.374,0.647,0.603,���쓌,3.5,��
2021/07/21,15:40,0.630,0.943,0.599,1.138,0.825,0.374,0.647,0.603,�쓌,3.5,��
2021/07/21,15:50,0.629,0.942,0.598,1.141,0.825,0.374,0.650,0.602,�쓌,3.2,��
2021/07/21,16:00,0.628,0.942,0.599,1.139,0.824,0.373,0.649,0.602,��쓌,3.2,��
2021/07/21,16:10,0.631,0.942,0.598,1.142,0.825,0.374,0.649,0.602,�쓌,2.5,��
2021/07/21,16:20,0.628,0.940,0.599,1.141,0.824,0.374,0.649,0.603,��쓌,3.6,��
2021/07/21,16:30,0.628,0.942,0.600,1.140,0.823,0.376,0.649,0.602,��쓌,4.1,��
2021/07/21,16:40,0.629,0.942,0.601,1.141,0.824,0.373,0.650,0.603,��,5.1,��
2021/07/21,16:50,0.629,0.941,0.599,1.140,0.823,0.374,0.647,0.603,��쓌,6.0,��
2021/07/21,17:00,0.630,0.943,0.599,1.141,0.824,0.375,0.650,0.601,��쓌,5.7,��
2021/07/21,17:10,0.628,0.942,0.598,1.141,0.823,0.375,0.649,0.602,��,5.6,��
2021/07/21,17:20,0.629,0.943,0.600,1.142,0.823,0.375,0.647,0.601,��,5.3,��
2021/07/21,17:30,0.629,0.941,0.598,1.139,0.826,0.374,0.648,0.603,��,4.6,��
2021/07/21,17:40,0.630,0.943,0.598,1.140,0.826,0.374,0.647,0.602,��쓌,4.4,��
2021/07/21,17:50,0.630,0.940,0.598,1.142,0.825,0.375,0.649,0.602,��,5.4,��
2021/07/21,18:00,0.628,0.941,0.596,1.139,0.825,0.374,0.647,0.603,��,4.8,��
2021/07/21,18:10,0.628,0.940,0.596,1.139,0.824,0.375,0.648,0.601,��,5.5,��
2021/07/21,18:20,0.629,0.939,0.598,1.140,0.825,0.373,0.647,0.601,��,5.3,��
2021/07/21,18:30,0.629,0.940,0.597,1.139,0.826,0.376,0.648,0.601,��,6.5,��
2021/07/21,18:40,0.627,0.939,0.597,1.138,0.824,0.373,0.648,0.604,��,6.5,��
2021/07/21,18:50,0.627,0.939,0.598,1.139,0.824,0.374,0.649,0.602,��,4.5,��
2021/07/21,19:00,0.629,0.942,0.596,1.139,0.825,0.373,0.648,0.600,��,4.3,��
2021/07/21,19:10,0.629,0.941,0.597,1.138,0.826,0.374,0.648,0.602,��,3.2,��
2021/07/21,19:20,0.628,0.943,0.598,1.140,0.825,0.376,0.648,0.603,��,2.3,��
2021/07/21,19:30,0.629,0.941,0.598,1.139,0.826,0.376,0.648,0.602,��쐼,1.9,��
2021/07/21,19:40,0.627,0.944,0.596,1.140,0.825,0.374,0.648,0.604,���쐼,0.6,��
2021/07/21,19:50,0.628,0.943,0.598,1.140,0.827,0.376,0.648,0.602,-,CALM,��
2021/07/21,20:00,0.628,0.944,0.600,1.140,0.823,0.376,0.648,0.603,���쐼,0.6,��
2021/07/21,20:10,0.628,0.944,0.597,1.142,0.826,0.376,0.649,0.603,�k��,0.6,��
2021/07/21,20:20,0.630,0.942,0.599,1.141,0.826,0.375,0.647,0.602,�k�k��,0.9,��
2021/07/21,20:30,0.629,0.943,0.598,1.139,0.826,0.376,0.649,0.604,�k�k��,1.7,��
2021/07/21,20:40,0.631,0.944,0.600,1.138,0.825,0.376,0.649,0.603,�k�k��,2.8,��
2021/07/21,20:50,0.630,0.942,0.598,1.139,0.825,0.375,0.648,0.602,�k�k��,3.5,��
2021/07/21,21:00,0.629,0.944,0.600,1.141,0.825,0.375,0.649,0.602,�k�k��,3.9,��
2021/07/21,21:10,0.630,0.943,0.598,1.140,0.825,0.375,0.648,0.604,�k�k��,4.0,��
2021/07/21,21:20,0.629,0.944,0.599,1.141,0.826,0.376,0.648,0.602,�k,3.5,��
2021/07/21,21:30,0.630,0.943,0.598,1.142,0.825,0.374,0.647,0.605,�k,3.1,��
2021/07/21,21:40,0.629,0.943,0.598,1.140,0.825,0.374,0.649,0.603,�k,3.7,��
2021/07/21,21:50,0.629,0.945,0.598,1.140,0.825,0.375,0.648,0.602,�k,3.4,��
2021/07/21,22:00,0.629,0.942,0.599,1.138,0.825,0.376,0.646,0.604,�k,4.2,��
2021/07/21,22:10,0.629,0.943,0.597,1.140,0.825,0.374,0.648,0.602,�k,3.7,��
2021/07/21,22:20,0.629,0.942,0.597,1.140,0.828,0.374,0.649,0.602,�k�k��,4.9,��
2021/07/21,22:30,0.629,0.943,0.597,1.140,0.825,0.375,0.648,0.605,�k�k��,4.8,��
2021/07/21,22:40,0.629,0.944,0.598,1.141,0.825,0.374,0.648,0.603,�k�k��,4.8,��
2021/07/21,22:50,0.628,0.941,0.597,1.140,0.824,0.374,0.648,0.603,�k�k��,4.2,��
2021/07/21,23:00,0.629,0.943,0.596,1.137,0.827,0.373,0.649,0.603,�k,3.9,��
2021/07/21,23:10,0.629,0.945,0.599,1.141,0.824,0.374,0.650,0.603,�k�k��,4.3,��
2021/07/21,23:20,0.627,0.942,0.598,1.139,0.825,0.374,0.647,0.604,�k�k��,3.8,��
2021/07/21,23:30,0.626,0.942,0.597,1.137,0.825,0.374,0.649,0.603,�k�k��,3.6,��
2021/07/21,23:40,0.631,0.944,0.599,1.140,0.825,0.374,0.649,0.603,�k�k��,3.3,��
2021/07/21,23:50,0.626,0.943,0.597,1.140,0.824,0.374,0.647,0.604,�k�k��,2.0,��
